STARLINK-32961, 63122

Orbit data source: Space-Track

STARLINK-32961, 63122 is a payload satellite owned by SpaceX/Seattle (US) in LEO that was launched on Thu, 27 Feb 2025 UTC via an FALCON 9 launch vehicle from the Air Force Eastern Test Range (AFETR). Payload-class satellites include a variety of spacecraft equipped with specific instruments for various scientific and technological missions. These include communications satellites like Starlink; space stations such as the ISS; scientific satellites like the Hubble; Earth observation satellites from companies like Planet Labs, Umbra, and HawkEye 360; GPS; miniature CubeSats for education and research; and military/defense satellites.

Loading next visibility...
Identifier
63122, 2025-039U
Orbit
LEO
Last TLE update
20 hours ago
Origin
Manufacturer
SpaceX/Seattle
Mission
Operational Commercial Communications
Bus & Motor
STARLINK V2M, Unknown motor
Mass
730 kg wet, ~700 kg dry
Launch date (UTC)
2025-02-27 (2 months ago)
Launch vehicle
FALCON 9
Launch site
Air Force Eastern Test Range (AFETR)
Object type
Payload
Rocket body
Debris
Shape & HBR
Box + 2 Pan, 29 m
Radar Cross Section
33.884 m², Large (>1 m²)

Expand to show TLE details & history

TLE from 20 hours ago
0 STARLINK-32961
1 63122U 25039U   25128.45084720  .00000930  00000-0  43301-4 0  9998
2 63122  43.0011 296.6783 0000977 255.9755 104.0988 15.27573793 11389
Epoch: 2025-05-08T10:49Z
Definitive object data (Epoch: 2025-05-08T10:49:13.198Z)
Latitude
-0.00001°
Longitude
-92.14786°
Altitude
483.007 km
Speed
7.626 km/s
True Right ascension
19h 46m 42s
True Declination
0° 00' 00"
Sunlit
Object was in daylight at TLE epoch
Visualization TLE readout
Latitude
-43.13241°
Longitude
175.61935°
Altitude
495.741 km
Speed
7.618 km/s
Apparent Right ascension
08h 34m 30s
Apparent Declination
-78° 39' 27"
Sunlit
Object is in full shadow
Visualization observer readout
Local Sidereal Time
14:59:04
Azimuth
194.831° SSW
Elevation
-40.186°
Doppler factor
1
Orbital elements
Apogee altitude
485.683 km
Perigee altitude
484.342 km
Semi-major axis
6,863.15 km
Eccentricity
0.0000977
Inclination
43.0011°
RAAN
296.6783°
Arg. of periapsis
255.9755°
True anomaly
104.10966°
Mean anomaly
104.0988°
Eccentric anomaly
104.10423°
Mean motion
3.81731 °/min
BSTAR
0.000043301
Orbital period
94.31 mins
Loading maneuver chart data...
Loading SW <> Apogee altitude chart data...
Loading historical data...
Loading historical data...
Loading historical data...
Loading historical data...
Loading historical data...
Loading historical data...
Loading historical data...

STARLINK-32961 Visibility forecast

Observer location: undefined°, undefined°

Span
Click to sort rows by Start time (UTC) header in descending order
Start Az.
Max El. time (UTC)
Max El. Az.
Max El.
End time (UTC)
End Az.
5 mins2025-05-09 13:41:10.204Z192.438° SSW2025-05-09 13:43:10.204Z156.606° SSE20.296°2025-05-09 13:46:10.204Z97.399° ESE
5 mins2025-05-09 15:20:10.204Z250.245° W2025-05-09 15:22:10.204Z238.33° WSW44.9°2025-05-09 15:25:10.204Z72.031° E
5 mins2025-05-09 16:59:10.204Z289.587° WNW2025-05-09 17:01:10.204Z344.274° N37.656°2025-05-09 17:04:10.204Z72.221° E
6 mins2025-05-09 18:38:10.204Z290.412° WNW2025-05-09 18:40:10.204Z310.347° NW42.976°2025-05-09 18:44:10.204Z104.629° ESE
5 mins2025-05-09 20:17:10.204Z260.003° W2025-05-09 20:19:10.204Z215.9° SW24.24°2025-05-09 20:22:10.204Z156.646° SSE
|